F4NFR-13 Weather Reports


time (UTC)temp
C
wind
direction
speed
KPH
gust
KPH
rain 1hr
cm
rain 24hr
cm
rain mn
cm
humidity
%
barometer
mb
20260503021616 12 246 1.6 1.6 0.00 0.00 0.48 99 1012.7
20260503021113 12 29 0.0 1.6 0.00 0.00 0.46 99 1012.3
20260503020611 12 239 1.6 1.6 0.00 0.00 0.46 99 1012.3
20260503020109 12 347 1.6 1.6 0.00 0.00 0.46 99 1012.7
20260503015606 12 227 3.2 6.4 0.05 0.00 0.46 99 1012.7
20260503014602 12 228 6.4 9.7 0.03 0.00 0.46 99 1013.0
20260503014100 12 234 4.8 6.4 0.03 0.00 0.46 98 1013.0
20260503013557 12 237 4.8 4.8 0.03 0.00 0.46 98 1013.0
20260503013055 12 191 4.8 9.7 0.00 0.00 0.43 98 1013.0
20260503012552 12 211 6.4 9.7 0.00 0.00 0.43 98 1012.7
20260503012050 12 215 6.4 6.4 0.00 0.00 0.43 97 1012.7
20260503011548 12 242 4.8 8.0 0.00 0.00 0.43 97 1013.0
20260503011045 13 217 4.8 4.8 0.00 0.00 0.43 97 1013.0
20260503010543 13 15 8.0 9.7 0.00 0.00 0.43 97 1013.0
20260503010041 13 274 1.6 1.6 0.41 0.00 0.41 97 1013.0
20260503005539 13 180 4.8 12.9 0.36 0.00 0.36 97 1013.4
20260503005037 13 229 6.4 8.0 0.33 0.00 0.33 96 1013.4
20260503004535 13 233 6.4 9.7 0.33 0.00 0.33 95 1013.0
20260503004033 15 272 9.7 12.9 0.33 0.00 0.33 95 1013.4
20260503003531 15 239 4.8 9.7 0.15 0.00 0.15 94 1013.4
20260503002024 15 273 4.8 4.8 0.03 0.00 0.03 88 1013.4
20260503001522 15 191 4.8 9.7 0.03 0.00 0.03 86 1013.4
20260503001019 16 233 3.2 6.4 0.00 0.00 0.00 83 1013.0
20260503000517 16 160 3.2 4.8 0.00 0.00 0.00 82 1013.4
20260503000015 16 218 4.8 9.7 0.00 0.00 0.00 82 1013.4
20260502235512 16 246 3.2 9.7 0.00 0.00 0.00 82 1013.4
20260502235010 15 224 3.2 3.2 0.00 0.00 0.00 82 1013.4
20260502234507 15 201 4.8 6.4 0.00 0.00 0.00 82 1013.4
20260502234005 15 203 3.2 6.4 0.00 0.00 0.00 82 1013.4
20260502233503 15 194 3.2 4.8 0.00 0.00 0.00 82 1013.4
20260502233000 15 241 6.4 6.4 0.00 0.00 0.00 82 1013.4
20260502232458 15 166 3.2 4.8 0.00 0.00 0.00 82 1013.4
20260502231956 15 237 3.2 3.2 0.00 0.00 0.00 82 1013.4
20260502231453 15 165 1.6 1.6 0.00 0.00 0.00 83 1013.4
20260502230951 15 201 3.2 4.8 0.00 0.00 0.00 82 1013.4
20260502230448 15 36 0.0 0.0 0.00 0.00 0.00 82 1013.4
20260502225946 15 215 3.2 3.2 0.00 0.00 0.00 82 1013.7
20260502225444 15 206 3.2 4.8 0.00 0.00 0.00 81 1013.7
20260502224942 16 183 3.2 3.2 0.00 0.00 0.00 81 1013.7
20260502224439 15 134 3.2 6.4 0.00 0.00 0.00 82 1014.0
20260502223937 16 178 3.2 9.7 0.00 0.00 0.00 82 1014.0
20260502223434 16 218 3.2 8.0 0.00 0.00 0.00 82 1014.0
20260502222932 16 248 0.0 1.6 0.00 0.00 0.00 82 1014.0
20260502222429 16 187 1.6 3.2 0.00 0.00 0.00 83 1014.0
20260502221927 16 195 6.4 9.7 0.00 0.00 0.00 82 1014.0
20260502220922 16 79 3.2 3.2 0.00 0.00 0.00 82 1014.0
20260502220420 16 193 4.8 4.8 0.00 0.00 0.00 82 1014.0
20260502215917 16 216 6.4 11.3 0.00 0.00 0.15 81 1014.0
20260502215415 16 225 3.2 4.8 0.00 0.00 0.15 81 1014.0
20260502214912 16 219 4.8 6.4 0.00 0.00 0.15 81 1013.7
20260502214410 16 189 4.8 6.4 0.00 0.00 0.15 81 1013.7
20260502213908 16 106 1.6 3.2 0.00 0.00 0.15 82 1013.7
20260502213405 16 188 3.2 3.2 0.00 0.00 0.15 82 1014.0
20260502212401 16 186 1.6 1.6 0.00 0.00 0.15 82 1014.0
20260502211858 16 264 3.2 4.8 0.00 0.00 0.15 82 1014.0
20260502211355 16 172 3.2 6.4 0.00 0.00 0.15 80 1014.0
20260502210853 16 200 4.8 6.4 0.00 0.00 0.15 79 1014.4
20260502210350 16 180 3.2 4.8 0.00 0.00 0.15 78 1014.0
20260502205848 16 244 3.2 4.8 0.00 0.00 0.15 77 1014.0
20260502205346 17 188 4.8 6.4 0.00 0.00 0.15 76 1014.0
20260502204844 17 215 3.2 4.8 0.00 0.00 0.15 75 1014.0
20260502204341 17 279 1.6 3.2 0.00 0.00 0.15 74 1014.0
20260502203839 17 220 3.2 4.8 0.00 0.00 0.15 72 1014.0
20260502203336 17 270 1.6 3.2 0.00 0.00 0.15 73 1014.0
20260502201829 17 189 3.2 3.2 0.00 0.00 0.15 72 1014.4
20260502201326 17 193 3.2 4.8 0.00 0.00 0.15 72 1014.4
20260502200824 17 357 0.0 0.0 0.00 0.00 0.15 73 1014.4
20260502200322 17 247 3.2 3.2 0.00 0.00 0.15 73 1014.4
20260502195819 17 208 3.2 4.8 0.00 0.00 0.15 73 1014.4
20260502195317 17 222 3.2 3.2 0.00 0.00 0.15 74 1014.4
20260502194815 17 243 4.8 4.8 0.00 0.00 0.15 74 1014.4
20260502193810 17 192 3.2 4.8 0.00 0.00 0.15 75 1014.4
20260502193308 17 254 1.6 4.8 0.00 0.00 0.15 76 1014.4
20260502192305 17 287 4.8 4.8 0.00 0.00 0.15 83 1014.4
20260502191258 17 193 3.2 6.4 0.00 0.00 0.15 84 1014.4
20260502190756 17 266 6.4 9.7 0.00 0.00 0.15 82 1014.4
20260502185631 17 204 3.2 4.8 0.00 0.00 0.15 84 1014.4
20260502185129 17 262 1.6 3.2 0.00 0.00 0.15 83 1014.4
20260502184627 17 217 3.2 6.4 0.00 0.00 0.15 83 1014.4
20260502184124 17 218 3.2 9.7 0.00 0.00 0.15 84 1014.4
20260502183622 17 260 1.6 1.6 0.00 0.00 0.15 86 1014.0
20260502183120 17 181 1.6 1.6 0.00 0.00 0.15 85 1014.0
20260502182618 17 262 3.2 4.8 0.00 0.00 0.15 85 1014.0
20260502182115 17 168 1.6 1.6 0.00 0.00 0.15 84 1014.0
20260502181110 17 251 1.6 1.6 0.00 0.00 0.15 88 1014.0
20260502180608 17 346 0.0 0.0 0.00 0.00 0.15 88 1014.0
20260502180106 17 93 1.6 1.6 0.00 0.00 0.15 88 1014.0
20260502164029 17 113 3.2 3.2 0.05 0.00 0.15 87 1014.7
20260502163527 17 101 1.6 1.6 0.05 0.00 0.15 87 1014.7
20260502163025 17 69 1.6 1.6 0.05 0.00 0.15 87 1014.7
20260502162523 17 110 1.6 3.2 0.05 0.00 0.15 86 1015.0
20260502162020 17 151 4.8 6.4 0.05 0.00 0.15 86 1015.0
20260502161015 17 197 9.7 11.3 0.03 0.00 0.13 83 1015.4
20260502160513 17 109 8.0 16.1 0.00 0.00 0.10 80 1015.4
20260502151951 21 123 9.7 9.7 0.00 0.00 0.08 65 1015.4
20260502151449 21 114 9.7 9.7 0.00 0.00 0.08 64 1015.7
20260502150946 21 158 11.3 17.7 0.00 0.00 0.08 62 1016.1
20260502150443 21 139 11.3 14.5 0.00 0.00 0.08 62 1016.1
20260502130347 22 110 1.6 4.8 0.00 0.00 0.08 61 1017.8
20260502103158 18 156 6.4 8.0 0.00 0.00 0.08 57 1019.8
20260502102153 18 111 1.6 4.8 0.00 0.00 0.08 57 1019.8
20260502091024 17 44 3.2 3.2 0.00 0.00 0.08 54 1020.5
20260502070629 13 8 0.0 0.0 0.00 0.00 0.08 93 1021.1
20260502065626 12 168 4.8 4.8 0.00 0.00 0.08 93 1021.1
20260502065441 12 179 6.4 8.0 0.00 0.00 0.08 93 1021.1
20260502064551 12 214 3.2 4.8 0.00 0.00 0.08 93 1021.1
20260502063741 12 17 0.0 0.0 0.00 0.00 0.08 96 1020.8
20260502063648 12 354 0.0 1.6 0.00 0.00 0.08 95 1008.8
20260502062646 12 206 4.8 11.3 0.00 0.00 0.08 98 1008.8
20260502062425 12 179 3.2 4.8 0.00 0.00 0.08 99 1008.8
20260502052112 22 0 0.0 0.0 0.00 0.00 0.00 56 1020.4
20260502051112 22 0 0.0 0.0 0.00 0.00 0.00 57 1020.4
20260502045917 22 0 0.0 0.0 0.00 0.00 2.97 57 1020.3
20260502044916 21 0 0.0 0.0 0.00 0.00 2.97 57 1020.2